Great Bend, KS

3:22 AM CST on November 22, 2017 (GMT -0600)
Great Bend Municipal

Weather History for KGBD - May, 2013

Change the Weather History Date:

Tuesday, May 14, 2013

  Actual Average Record
Temperature  
Mean Temperature 78 °F -  
Max Temperature 96 °F 77 °F 96 °F (2013)
Min Temperature 60 °F 52 °F 25 °F (1953)
Cooling Degree Days 13    
Growing Degree Days 28 (Base 50)    
Moisture  
Dew Point 42 °F    
Average Humidity 33    
Maximum Humidity 82    
Minimum Humidity 14    
Precipitation  
Precipitation 0.00 in - - ()
Sea Level Pressure  
Sea Level Pressure 29.85 in    
Wind  
Wind Speed 15 mph (SSW)    
Max Wind Speed 28 mph    
Max Gust Speed 36 mph    
Visibility 10 miles    
Events      
Averages and records for this station are not official NWS values.
T = Trace of Precipitation, MM = Missing Value Source: NWS Daily Summary

Daily Weather History Graph

Daily Weather History Graph

Search for Another Location

Airport or City:

Trip Planner

Search our weather history database for the weather conditions in past years. The results will help you decide how hot, cold, wet, or windy it might be!

Date:

Astronomy

May. 14, 2013 Rise Set
Actual Time 6:24 AM CDT 8:39 PM CDT
Civil Twilight 5:55 AM CDT 9:08 PM CDT
Nautical Twilight 5:18 AM CDT 9:45 PM CDT
Astronomical Twilight 4:39 AM CDT 10:25 PM CDT
Moon 10:05 AM CDT (5/14) No Moon Set
Length of Visible Light 15h 13m
Length of Day
14h 14m
Waxing Crescent, 19% of the Moon is Illuminated
May 14
Waxing Crescent
May 17
First Quarter
May 24
Full
May 31
Last Quarter
Jun 8
New

Hourly Weather History & Observations

Time (CDT) Temp. Dew Point Humidity Pressure Visibility Wind Dir Wind Speed Gust Speed Precip Events Conditions
12:15 AM 60.8 °F 55.4 °F 82% 29.93 in 10.0 mi South 6.9 mph - N/A   Clear
12:35 AM 62.6 °F 55.4 °F 77% 29.93 in 10.0 mi South 10.4 mph - N/A   Clear
12:55 AM 62.6 °F 55.4 °F 77% 29.92 in 10.0 mi SSW 9.2 mph - N/A   Clear
1:15 AM 62.6 °F 55.4 °F 77% 29.92 in 10.0 mi SSW 10.4 mph - N/A   Clear
1:35 AM 62.6 °F 53.6 °F 72% 29.91 in 10.0 mi SSW 11.5 mph - N/A   Clear
1:55 AM 62.6 °F 51.8 °F 68% 29.91 in 10.0 mi SSW 10.4 mph - N/A   Clear
2:15 AM 64.4 °F 48.2 °F 56% 29.90 in 10.0 mi SSW 11.5 mph - N/A   Clear
2:35 AM 64.4 °F 46.4 °F 52% 29.90 in 10.0 mi SW 11.5 mph - N/A   Clear
2:55 AM 64.4 °F 46.4 °F 52% 29.90 in 10.0 mi SW 12.7 mph - N/A   Clear
3:15 AM 64.4 °F 44.6 °F 49% 29.89 in 10.0 mi SW 15.0 mph - N/A   Clear
3:35 AM 64.4 °F 44.6 °F 49% 29.89 in 10.0 mi SW 12.7 mph - N/A   Clear
3:55 AM 64.4 °F 42.8 °F 45% 29.88 in 10.0 mi SW 13.8 mph 17.3 mph N/A   Clear
4:15 AM 64.4 °F 42.8 °F 45% 29.88 in 10.0 mi SW 15.0 mph - N/A   Clear
4:35 AM 64.4 °F 41.0 °F 42% 29.88 in 10.0 mi SW 13.8 mph - N/A   Clear
4:55 AM 64.4 °F 39.2 °F 40% 29.88 in 10.0 mi SW 16.1 mph - N/A   Clear
5:15 AM 64.4 °F 39.2 °F 40% 29.88 in 10.0 mi SW 15.0 mph - N/A   Clear
5:35 AM 64.4 °F 39.2 °F 40% 29.88 in 10.0 mi SW 15.0 mph - N/A   Clear
5:55 AM 64.4 °F 39.2 °F 40% 29.88 in 10.0 mi SW 15.0 mph - N/A   Clear
6:15 AM 62.6 °F 37.4 °F 39% 29.88 in 10.0 mi SW 13.8 mph - N/A   Clear
6:35 AM 62.6 °F 37.4 °F 39% 29.88 in 10.0 mi SW 15.0 mph - N/A   Clear
6:55 AM 64.4 °F 37.4 °F 37% 29.88 in 10.0 mi SW 15.0 mph - N/A   Clear
7:15 AM 64.4 °F 37.4 °F 37% 29.88 in 10.0 mi SW 17.3 mph 21.9 mph N/A   Clear
7:35 AM 64.4 °F 37.4 °F 37% 29.88 in 10.0 mi SW 19.6 mph - N/A   Clear
7:55 AM 64.4 °F 37.4 °F 37% 29.89 in 10.0 mi SW 18.4 mph 21.9 mph N/A   Clear
8:15 AM 66.2 °F 39.2 °F 37% 29.89 in 10.0 mi SW 17.3 mph - N/A   Clear
8:35 AM 69.8 °F 39.2 °F 33% 29.89 in 10.0 mi SSW 16.1 mph 21.9 mph N/A   Clear
8:55 AM 71.6 °F 41.0 °F 33% 29.89 in 10.0 mi SW 15.0 mph 20.7 mph N/A   Clear
9:15 AM 73.4 °F 39.2 °F 29% 29.89 in 10.0 mi SW 19.6 mph 26.5 mph N/A   Clear
9:35 AM 75.2 °F 39.2 °F 27% 29.89 in 10.0 mi SW 20.7 mph 27.6 mph N/A   Clear
9:55 AM 77.0 °F 39.2 °F 26% 29.88 in 10.0 mi SW 21.9 mph 28.8 mph N/A   Clear
10:15 AM 78.8 °F 39.2 °F 24% 29.88 in 10.0 mi SW 21.9 mph 28.8 mph N/A   Clear
10:35 AM 82.4 °F 39.2 °F 21% 29.88 in 10.0 mi SW 24.2 mph 28.8 mph N/A   Clear
10:55 AM 84.2 °F 39.2 °F 20% 29.87 in 10.0 mi SW 23.0 mph 29.9 mph N/A   Clear
11:15 AM 86.0 °F 39.2 °F 19% 29.88 in 10.0 mi SW 23.0 mph 32.2 mph N/A   Clear
11:35 AM 87.8 °F 41.0 °F 19% 29.87 in 10.0 mi SSW 18.4 mph 28.8 mph N/A   Clear
11:55 AM 89.6 °F 42.8 °F 20% 29.87 in 10.0 mi SSW 21.9 mph 26.5 mph N/A   Clear
12:15 PM 89.6 °F 41.0 °F 18% 29.87 in 10.0 mi SSW 19.6 mph 25.3 mph N/A   Clear
12:35 PM 91.4 °F 39.2 °F 16% 29.86 in 10.0 mi SW 21.9 mph 27.6 mph N/A   Clear
12:55 PM 93.2 °F 41.0 °F 16% 29.85 in 10.0 mi SSW 19.6 mph 27.6 mph N/A   Clear
1:15 PM 93.2 °F 39.2 °F 15% 29.84 in 10.0 mi SW 24.2 mph 27.6 mph N/A   Clear
1:35 PM 93.2 °F 39.2 °F 15% 29.84 in 10.0 mi SSW 23.0 mph 31.1 mph N/A   Clear
1:55 PM 95.0 °F 39.2 °F 14% 29.83 in 10.0 mi SW 24.2 mph 34.5 mph N/A   Clear
2:15 PM 95.0 °F 39.2 °F 14% 29.82 in 10.0 mi SW 25.3 mph 33.4 mph N/A   Clear
2:35 PM 95.0 °F 39.2 °F 14% 29.82 in 10.0 mi SW 23.0 mph 34.5 mph N/A   Clear
2:55 PM 95.0 °F 39.2 °F 14% 29.81 in 10.0 mi SSW 25.3 mph 33.4 mph N/A   Clear
3:15 PM 95.0 °F 39.2 °F 14% 29.80 in 10.0 mi SW 19.6 mph 34.5 mph N/A   Clear
3:35 PM 96.8 °F 39.2 °F 14% 29.80 in 10.0 mi SSW 26.5 mph 33.4 mph N/A   Clear
3:55 PM 96.8 °F 39.2 °F 14% 29.79 in 10.0 mi SSW 24.2 mph 29.9 mph N/A   Clear
4:15 PM 95.0 °F 39.2 °F 14% 29.79 in 10.0 mi SW 20.7 mph 32.2 mph N/A   Clear
4:35 PM 95.0 °F 39.2 °F 14% 29.78 in 10.0 mi SSW 26.5 mph 31.1 mph N/A   Clear
4:55 PM 95.0 °F 39.2 °F 14% 29.78 in 10.0 mi SSW 20.7 mph 35.7 mph N/A   Clear
5:15 PM 93.2 °F 41.0 °F 16% 29.77 in 10.0 mi South 20.7 mph 32.2 mph N/A   Clear
5:35 PM 91.4 °F 42.8 °F 18% 29.77 in 10.0 mi South 27.6 mph 32.2 mph N/A   Clear
5:55 PM 91.4 °F 42.8 °F 18% 29.77 in 10.0 mi South 25.3 mph 35.7 mph N/A   Clear
6:15 PM 91.4 °F 42.8 °F 18% 29.76 in 10.0 mi South 25.3 mph 34.5 mph N/A   Clear
6:35 PM 89.6 °F 42.8 °F 20% 29.76 in 10.0 mi South 26.5 mph 34.5 mph N/A   Clear
6:55 PM 89.6 °F 42.8 °F 20% 29.76 in 10.0 mi South 23.0 mph 33.4 mph N/A   Clear
7:15 PM 87.8 °F 42.8 °F 21% 29.76 in 10.0 mi South 18.4 mph 27.6 mph N/A   Clear
7:35 PM 86.0 °F 42.8 °F 22% 29.76 in 10.0 mi South 20.7 mph 27.6 mph N/A   Clear
7:55 PM 84.2 °F 42.8 °F 23% 29.77 in 10.0 mi South 16.1 mph 27.6 mph N/A   Clear
8:15 PM 82.4 °F 42.8 °F 25% 29.78 in 10.0 mi South 15.0 mph 23.0 mph N/A   Clear
8:35 PM 80.6 °F 42.8 °F 26% 29.78 in 10.0 mi South 15.0 mph 20.7 mph N/A   Clear
8:55 PM 78.8 °F 42.8 °F 28% 29.79 in 10.0 mi South 13.8 mph - N/A   Clear
9:15 PM 75.2 °F 42.8 °F 31% 29.80 in 10.0 mi South 13.8 mph - N/A   Clear
9:35 PM 75.2 °F 42.8 °F 31% 29.80 in 10.0 mi South 13.8 mph - N/A   Clear
9:55 PM 73.4 °F 44.6 °F 36% 29.81 in 10.0 mi South 15.0 mph - N/A   Clear
10:15 PM 71.6 °F 44.6 °F 38% 29.81 in 10.0 mi South 12.7 mph - N/A   Clear
10:35 PM 71.6 °F 46.4 °F 41% 29.82 in 10.0 mi South 13.8 mph - N/A   Clear
10:55 PM 71.6 °F 48.2 °F 43% 29.82 in 10.0 mi South 15.0 mph - N/A   Clear
11:15 PM 71.6 °F 48.2 °F 43% 29.82 in 10.0 mi South 15.0 mph - N/A   Clear
11:35 PM 71.6 °F 48.2 °F 43% 29.82 in 10.0 mi South 18.4 mph 21.9 mph N/A   Clear
11:55 PM 71.6 °F 48.2 °F 43% 29.83 in 10.0 mi South 16.1 mph 20.7 mph N/A   Clear